Time,TemperatureF,DewpointF,PressureIn,WindDirection,WindDirectionDegrees,WindSpeedMPH,WindSpeedGustMPH,Humidity,HourlyPrecipIn,Conditions,Clouds,dailyrainin,SoftwareType,DateUTC
2013-01-16 00:00:00,33.5,32.7,30.10,NNE,27,2.0,5.0,97,0.07,,,0.00,WUHU216DAVISVP2,2013-01-16 05:00:00,
2013-01-16 00:02:00,33.5,32.7,30.09,NE,53,2.0,5.0,97,0.06,,,0.00,WUHU216DAVISVP2,2013-01-16 05:02:00,
2013-01-16 00:03:00,33.5,32.7,30.09,NNE,28,3.0,7.0,97,0.06,,,0.00,WUHU216DAVISVP2,2013-01-16 05:03:00,
2013-01-16 00:08:00,33.4,32.6,30.09,NNE,19,2.0,7.0,97,0.06,,,0.00,WUHU216DAVISVP2,2013-01-16 05:08:00,
2013-01-16 00:13:00,33.3,32.5,30.08,NE,47,1.0,6.0,97,0.06,,,0.01,WUHU216DAVISVP2,2013-01-16 05:13:00,
2013-01-16 00:18:00,33.2,32.4,30.08,NNE,17,1.0,5.0,97,0.06,,,0.01,WUHU216DAVISVP2,2013-01-16 05:18:00,
2013-01-16 00:23:00,33.2,32.4,30.09,NE,43,3.0,5.0,97,0.06,,,0.02,WUHU216DAVISVP2,2013-01-16 05:23:00,
2013-01-16 00:28:00,33.1,32.3,30.08,NE,34,3.0,4.0,97,0.06,,,0.02,WUHU216DAVISVP2,2013-01-16 05:28:00,
2013-01-16 00:33:00,33.1,32.3,30.08,NE,44,0.0,4.0,97,0.06,,,0.03,WUHU216DAVISVP2,2013-01-16 05:33:00,
2013-01-16 00:38:00,33.0,32.2,30.08,NNE,16,0.0,4.0,97,0.06,,,0.03,WUHU216DAVISVP2,2013-01-16 05:38:00,
2013-01-16 00:43:00,33.0,32.2,30.08,NNE,32,1.0,4.0,97,0.06,,,0.04,WUHU216DAVISVP2,2013-01-16 05:43:00,
2013-01-16 00:48:00,32.9,32.1,30.08,North,356,1.0,4.0,97,0.06,,,0.05,WUHU216DAVISVP2,2013-01-16 05:48:00,
2013-01-16 00:53:00,32.9,32.1,30.08,NNE,27,2.0,3.0,97,0.07,,,0.06,WUHU216DAVISVP2,2013-01-16 05:53:00,
2013-01-16 00:58:00,32.8,32.0,30.08,NNE,32,1.0,3.0,97,0.06,,,0.06,WUHU216DAVISVP2,2013-01-16 05:58:00,
2013-01-16 01:03:00,32.7,31.9,30.08,North,10,0.0,4.0,97,0.07,,,0.07,WUHU216DAVISVP2,2013-01-16 06:03:00,
2013-01-16 01:08:00,32.7,31.9,30.09,North,359,2.0,4.0,97,0.09,,,0.09,WUHU216DAVISVP2,2013-01-16 06:08:00,
2013-01-16 01:13:00,32.6,31.8,30.09,NNW,333,1.0,4.0,97,0.09,,,0.10,WUHU216DAVISVP2,2013-01-16 06:13:00,
2013-01-16 01:18:00,32.6,31.8,30.10,NNW,340,0.0,4.0,97,0.10,,,0.11,WUHU216DAVISVP2,2013-01-16 06:18:00,
2013-01-16 01:23:00,32.6,31.8,30.11,North,353,1.0,3.0,97,0.09,,,0.11,WUHU216DAVISVP2,2013-01-16 06:23:00,
2013-01-16 01:28:00,32.6,31.8,30.11,NE,44,1.0,3.0,97,0.10,,,0.12,WUHU216DAVISVP2,2013-01-16 06:28:00,
2013-01-16 01:33:00,32.5,31.7,30.10,NNE,30,0.0,3.0,97,0.10,,,0.13,WUHU216DAVISVP2,2013-01-16 06:33:00,
2013-01-16 01:38:00,32.5,31.7,30.10,NE,34,2.0,3.0,97,0.10,,,0.13,WUHU216DAVISVP2,2013-01-16 06:38:00,
2013-01-16 01:43:00,32.5,31.7,30.10,NE,55,1.0,3.0,97,0.10,,,0.14,WUHU216DAVISVP2,2013-01-16 06:43:00,
2013-01-16 01:48:00,32.5,31.7,30.11,North,350,1.0,3.0,97,0.09,,,0.14,WUHU216DAVISVP2,2013-01-16 06:48:00,
2013-01-16 01:53:00,32.5,31.7,30.10,ENE,60,3.0,4.0,97,0.09,,,0.15,WUHU216DAVISVP2,2013-01-16 06:53:00,
2013-01-16 01:58:00,32.5,31.7,30.10,NE,42,1.0,4.0,97,0.09,,,0.15,WUHU216DAVISVP2,2013-01-16 06:58:00,
2013-01-16 02:03:00,32.5,31.7,30.10,ENE,65,1.0,4.0,97,0.09,,,0.16,WUHU216DAVISVP2,2013-01-16 07:03:00,
2013-01-16 02:08:00,32.5,31.7,30.11,NE,51,1.0,3.0,97,0.07,,,0.16,WUHU216DAVISVP2,2013-01-16 07:08:00,
2013-01-16 02:13:00,32.6,31.8,30.10,East,85,3.0,3.0,97,0.06,,,0.16,WUHU216DAVISVP2,2013-01-16 07:13:00,
2013-01-16 02:18:00,32.5,31.7,30.09,ENE,65,1.0,4.0,97,0.05,,,0.16,WUHU216DAVISVP2,2013-01-16 07:18:00,
2013-01-16 02:23:00,32.5,31.7,30.09,ENE,60,2.0,4.0,97,0.06,,,0.17,WUHU216DAVISVP2,2013-01-16 07:23:00,
2013-01-16 02:28:00,32.5,31.7,30.08,NE,55,1.0,3.0,97,0.05,,,0.17,WUHU216DAVISVP2,2013-01-16 07:28:00,
2013-01-16 02:33:00,32.5,31.7,30.07,ENE,60,2.0,3.0,97,0.04,,,0.17,WUHU216DAVISVP2,2013-01-16 07:33:00,
2013-01-16 02:38:00,32.5,31.7,30.08,NNW,348,1.0,3.0,97,0.04,,,0.17,WUHU216DAVISVP2,2013-01-16 07:38:00,
2013-01-16 02:43:00,32.5,31.7,30.08,ENE,68,0.0,2.0,97,0.03,,,0.17,WUHU216DAVISVP2,2013-01-16 07:43:00,
2013-01-16 02:48:00,32.5,31.7,30.07,NE,35,0.0,2.0,97,0.03,,,0.17,WUHU216DAVISVP2,2013-01-16 07:48:00,
2013-01-16 02:53:00,32.4,31.6,30.07,ENE,71,2.0,3.0,97,0.02,,,0.17,WUHU216DAVISVP2,2013-01-16 07:53:00,
2013-01-16 02:58:00,32.3,31.5,30.07,NNE,27,0.0,3.0,97,0.02,,,0.17,WUHU216DAVISVP2,2013-01-16 07:58:00,
2013-01-16 03:03:00,32.3,31.5,30.07,North,356,1.0,2.0,97,0.01,,,0.17,WUHU216DAVISVP2,2013-01-16 08:03:00,
2013-01-16 03:08:00,32.3,31.5,30.04,ENE,72,1.0,1.0,97,0.01,,,0.17,WUHU216DAVISVP2,2013-01-16 08:08:00,
2013-01-16 03:13:00,32.3,31.5,30.05,NW,304,2.0,3.0,97,0.01,,,0.17,WUHU216DAVISVP2,2013-01-16 08:13:00,
2013-01-16 03:18:00,32.3,31.5,30.05,NW,323,0.0,3.0,97,0.01,,,0.17,WUHU216DAVISVP2,2013-01-16 08:18:00,
2013-01-16 03:23:00,32.3,31.5,30.05,NW,316,0.0,4.0,97,0.00,,,0.17,WUHU216DAVISVP2,2013-01-16 08:23:00,
2013-01-16 03:28:00,32.3,31.5,30.06,NNW,328,1.0,4.0,97,0.00,,,0.17,WUHU216DAVISVP2,2013-01-16 08:28:00,
2013-01-16 03:33:00,32.2,31.4,30.06,ENE,66,1.0,4.0,97,0.00,,,0.17,WUHU216DAVISVP2,2013-01-16 08:33:00,
2013-01-16 03:38:00,32.2,31.4,30.05,ENE,61,2.0,4.0,97,0.00,,,0.17,WUHU216DAVISVP2,2013-01-16 08:38:00,
2013-01-16 03:43:00,32.2,31.4,30.04,NE,39,2.0,4.0,97,0.00,,,0.17,WUHU216DAVISVP2,2013-01-16 08:43:00,
2013-01-16 03:48:00,32.2,31.4,30.04,ENE,64,0.0,4.0,97,0.00,,,0.17,WUHU216DAVISVP2,2013-01-16 08:48:00,
2013-01-16 03:53:00,32.2,31.4,30.04,NNE,17,0.0,2.0,97,0.00,,,0.17,WUHU216DAVISVP2,2013-01-16 08:53:00,
2013-01-16 03:58:00,32.2,31.4,30.05,NNE,30,0.0,1.0,97,0.00,,,0.17,WUHU216DAVISVP2,2013-01-16 08:58:00,
2013-01-16 04:03:00,32.1,31.3,30.04,East,80,2.0,2.0,97,0.00,,,0.17,WUHU216DAVISVP2,2013-01-16 09:03:00,
2013-01-16 04:08:00,32.1,31.3,30.03,East,93,1.0,2.0,97,0.00,,,0.17,WUHU216DAVISVP2,2013-01-16 09:08:00,
2013-01-16 04:13:00,32.1,31.3,30.03,East,98,1.0,2.0,97,0.00,,,0.17,WUHU216DAVISVP2,2013-01-16 09:13:00,
2013-01-16 04:18:00,32.1,31.3,30.02,ENE,76,0.0,2.0,97,0.00,,,0.17,WUHU216DAVISVP2,2013-01-16 09:18:00,
2013-01-16 04:23:00,32.1,31.3,30.02,ENE,73,1.0,2.0,97,0.00,,,0.17,WUHU216DAVISVP2,2013-01-16 09:23:00,
2013-01-16 04:28:00,32.2,31.4,30.01,NE,56,0.0,2.0,97,0.00,,,0.17,WUHU216DAVISVP2,2013-01-16 09:28:00,
2013-01-16 04:33:00,32.2,31.4,30.01,East,82,1.0,2.0,97,0.00,,,0.17,WUHU216DAVISVP2,2013-01-16 09:33:00,
2013-01-16 04:38:00,32.1,31.3,30.01,East,81,0.0,2.0,97,0.00,,,0.17,WUHU216DAVISVP2,2013-01-16 09:38:00,
2013-01-16 04:43:00,32.2,31.4,30.01,East,84,0.0,1.0,97,0.00,,,0.17,WUHU216DAVISVP2,2013-01-16 09:43:00,
2013-01-16 04:48:00,32.2,31.4,30.01,East,83,0.0,1.0,97,0.00,,,0.17,WUHU216DAVISVP2,2013-01-16 09:48:00,
2013-01-16 04:53:00,32.2,31.4,30.01,East,85,0.0,1.0,97,0.00,,,0.17,WUHU216DAVISVP2,2013-01-16 09:53:00,
2013-01-16 04:58:00,32.2,31.4,30.01,East,85,0.0,1.0,97,0.00,,,0.17,WUHU216DAVISVP2,2013-01-16 09:58:00,
2013-01-16 05:03:00,32.2,31.4,30.01,WNW,300,1.0,1.0,97,0.00,,,0.17,WUHU216DAVISVP2,2013-01-16 10:03:00,
2013-01-16 05:08:00,32.2,31.4,30.01,WNW,300,0.0,1.0,97,0.00,,,0.17,WUHU216DAVISVP2,2013-01-16 10:08:00,
2013-01-16 05:13:00,32.2,31.4,30.02,WNW,291,0.0,1.0,97,0.00,,,0.17,WUHU216DAVISVP2,2013-01-16 10:13:00,
2013-01-16 05:18:00,32.2,31.4,30.03,NW,304,1.0,2.0,97,0.00,,,0.17,WUHU216DAVISVP2,2013-01-16 10:18:00,
2013-01-16 05:23:00,32.3,31.5,30.03,NNW,347,0.0,2.0,97,0.00,,,0.17,WUHU216DAVISVP2,2013-01-16 10:23:00,
2013-01-16 05:28:00,32.3,31.5,30.03,NNW,346,0.0,2.0,97,0.00,,,0.17,WUHU216DAVISVP2,2013-01-16 10:28:00,
2013-01-16 05:33:00,32.3,31.5,30.02,NNW,348,1.0,1.0,97,0.01,,,0.18,WUHU216DAVISVP2,2013-01-16 10:33:00,
2013-01-16 05:38:00,32.3,31.5,30.01,ENE,58,1.0,2.0,97,0.01,,,0.18,WUHU216DAVISVP2,2013-01-16 10:38:00,
2013-01-16 05:43:00,32.3,31.5,30.01,ENE,58,0.0,2.0,97,0.01,,,0.18,WUHU216DAVISVP2,2013-01-16 10:43:00,
2013-01-16 05:48:00,32.3,31.5,30.02,NE,56,0.0,1.0,97,0.01,,,0.18,WUHU216DAVISVP2,2013-01-16 10:48:00,
2013-01-16 05:53:00,32.3,31.5,30.02,ENE,57,0.0,1.0,97,0.02,,,0.19,WUHU216DAVISVP2,2013-01-16 10:53:00,
2013-01-16 05:58:00,32.3,31.5,30.02,NE,56,0.0,1.0,97,0.02,,,0.19,WUHU216DAVISVP2,2013-01-16 10:58:00,
2013-01-16 06:03:00,32.3,31.5,30.02,NE,56,0.0,1.0,97,0.02,,,0.19,WUHU216DAVISVP2,2013-01-16 11:03:00,
2013-01-16 06:08:00,32.3,31.5,30.02,NE,56,1.0,1.0,97,0.02,,,0.19,WUHU216DAVISVP2,2013-01-16 11:08:00,
2013-01-16 06:13:00,32.3,31.5,30.01,NE,56,2.0,2.0,97,0.02,,,0.19,WUHU216DAVISVP2,2013-01-16 11:13:00,
2013-01-16 06:19:00,32.3,31.5,30.00,NE,49,2.0,3.0,97,0.03,,,0.20,WUHU216DAVISVP2,2013-01-16 11:19:00,
2013-01-16 06:24:00,32.3,31.5,30.01,ENE,59,0.0,3.0,97,0.03,,,0.20,WUHU216DAVISVP2,2013-01-16 11:24:00,
2013-01-16 06:29:00,32.3,31.5,30.01,NE,56,0.0,2.0,97,0.03,,,0.20,WUHU216DAVISVP2,2013-01-16 11:29:00,
2013-01-16 06:33:00,32.3,31.5,30.01,ENE,74,0.0,2.0,97,0.02,,,0.20,WUHU216DAVISVP2,2013-01-16 11:33:00,
2013-01-16 06:38:00,32.3,31.5,30.02,ENE,74,0.0,2.0,97,0.02,,,0.20,WUHU216DAVISVP2,2013-01-16 11:38:00,
2013-01-16 06:43:00,32.3,31.5,30.02,ENE,74,0.0,0.0,97,0.02,,,0.20,WUHU216DAVISVP2,2013-01-16 11:43:00,
2013-01-16 06:49:00,32.3,31.5,30.01,ENE,72,0.0,1.0,97,0.02,,,0.20,WUHU216DAVISVP2,2013-01-16 11:49:00,
2013-01-16 06:54:00,32.3,31.5,30.00,ENE,58,1.0,3.0,97,0.01,,,0.20,WUHU216DAVISVP2,2013-01-16 11:54:00,
2013-01-16 06:59:00,32.3,31.5,29.99,ENE,64,1.0,3.0,97,0.01,,,0.20,WUHU216DAVISVP2,2013-01-16 11:59:00,
2013-01-16 07:04:00,32.3,31.5,29.99,NE,54,0.0,3.0,97,0.01,,,0.20,WUHU216DAVISVP2,2013-01-16 12:04:00,
2013-01-16 07:09:00,32.4,31.6,29.99,NE,54,0.0,2.0,97,0.01,,,0.20,WUHU216DAVISVP2,2013-01-16 12:09:00,
2013-01-16 07:14:00,32.4,31.6,30.00,NW,308,1.0,2.0,97,0.01,,,0.20,WUHU216DAVISVP2,2013-01-16 12:14:00,
2013-01-16 07:19:00,32.4,31.6,30.00,NW,305,1.0,2.0,97,0.00,,,0.20,WUHU216DAVISVP2,2013-01-16 12:19:00,
2013-01-16 07:24:00,32.4,31.6,30.00,WNW,291,1.0,2.0,97,0.00,,,0.20,WUHU216DAVISVP2,2013-01-16 12:24:00,
2013-01-16 07:29:00,32.4,31.6,30.00,WNW,292,1.0,2.0,97,0.00,,,0.20,WUHU216DAVISVP2,2013-01-16 12:29:00,
2013-01-16 07:34:00,32.4,31.6,30.00,West,277,1.0,2.0,97,0.00,,,0.20,WUHU216DAVISVP2,2013-01-16 12:34:00,
2013-01-16 07:39:00,32.4,31.6,30.00,WNW,285,1.0,2.0,97,0.00,,,0.20,WUHU216DAVISVP2,2013-01-16 12:39:00,
2013-01-16 07:44:00,32.4,31.6,30.01,West,280,1.0,2.0,97,0.01,,,0.21,WUHU216DAVISVP2,2013-01-16 12:44:00,
2013-01-16 07:49:00,32.5,31.7,30.01,West,269,1.0,2.0,97,0.01,,,0.21,WUHU216DAVISVP2,2013-01-16 12:49:00,
2013-01-16 07:54:00,32.5,31.7,30.02,WNW,292,1.0,3.0,97,0.01,,,0.21,WUHU216DAVISVP2,2013-01-16 12:54:00,
2013-01-16 07:59:00,32.5,31.7,30.01,West,281,0.0,3.0,97,0.01,,,0.21,WUHU216DAVISVP2,2013-01-16 12:59:00,
2013-01-16 08:04:00,32.5,31.7,30.01,West,281,0.0,2.0,97,0.02,,,0.22,WUHU216DAVISVP2,2013-01-16 13:04:00,
2013-01-16 08:09:00,32.5,31.7,30.02,WNW,283,0.0,1.0,97,0.02,,,0.22,WUHU216DAVISVP2,2013-01-16 13:09:00,
2013-01-16 08:14:00,32.5,31.7,30.02,WSW,238,1.0,1.0,97,0.02,,,0.22,WUHU216DAVISVP2,2013-01-16 13:14:00,
2013-01-16 08:19:00,32.5,31.7,30.01,West,280,1.0,1.0,97,0.02,,,0.22,WUHU216DAVISVP2,2013-01-16 13:19:00,
2013-01-16 08:24:00,32.6,31.8,30.02,West,266,0.0,1.0,97,0.02,,,0.22,WUHU216DAVISVP2,2013-01-16 13:24:00,
2013-01-16 08:29:00,32.7,32.2,30.02,West,262,0.0,1.0,98,0.03,,,0.24,WUHU216DAVISVP2,2013-01-16 13:29:00,
2013-01-16 08:34:00,32.6,31.8,30.02,WNW,285,1.0,2.0,97,0.03,,,0.24,WUHU216DAVISVP2,2013-01-16 13:34:00,
2013-01-16 08:39:00,32.6,31.8,30.02,NW,312,1.0,2.0,97,0.02,,,0.24,WUHU216DAVISVP2,2013-01-16 13:39:00,
2013-01-16 08:44:00,32.6,31.8,30.03,West,259,1.0,1.0,97,0.03,,,0.25,WUHU216DAVISVP2,2013-01-16 13:44:00,
2013-01-16 08:49:00,32.6,31.8,30.03,West,264,1.0,2.0,97,0.03,,,0.25,WUHU216DAVISVP2,2013-01-16 13:49:00,
2013-01-16 08:54:00,32.7,31.9,30.03,West,273,1.0,2.0,97,0.03,,,0.25,WUHU216DAVISVP2,2013-01-16 13:54:00,
2013-01-16 08:59:00,32.9,32.4,30.04,SSW,200,1.0,3.0,98,0.03,,,0.25,WUHU216DAVISVP2,2013-01-16 13:59:00,
2013-01-16 09:04:00,33.0,32.5,30.03,SW,219,1.0,3.0,98,0.02,,,0.25,WUHU216DAVISVP2,2013-01-16 14:04:00,
2013-01-16 09:09:00,33.0,32.5,30.03,South,185,2.0,3.0,98,0.02,,,0.25,WUHU216DAVISVP2,2013-01-16 14:09:00,
2013-01-16 09:14:00,33.2,32.7,30.03,SW,229,3.0,3.0,98,0.02,,,0.25,WUHU216DAVISVP2,2013-01-16 14:14:00,
2013-01-16 09:19:00,33.3,32.8,30.03,SW,232,3.0,5.0,98,0.02,,,0.25,WUHU216DAVISVP2,2013-01-16 14:19:00,
2013-01-16 09:24:00,33.4,32.9,30.03,SW,216,2.0,5.0,98,0.02,,,0.25,WUHU216DAVISVP2,2013-01-16 14:24:00,
2013-01-16 09:29:00,33.5,33.0,30.02,WNW,284,1.0,4.0,98,0.01,,,0.25,WUHU216DAVISVP2,2013-01-16 14:29:00,
2013-01-16 09:34:00,33.5,33.0,30.02,West,267,5.0,5.0,98,0.02,,,0.26,WUHU216DAVISVP2,2013-01-16 14:34:00,
2013-01-16 09:39:00,33.6,33.1,30.02,West,271,6.0,7.0,98,0.02,,,0.26,WUHU216DAVISVP2,2013-01-16 14:39:00,
2013-01-16 09:44:00,33.5,32.7,30.02,WSW,242,4.0,10.0,97,0.01,,,0.26,WUHU216DAVISVP2,2013-01-16 14:44:00,
2013-01-16 09:49:00,33.5,32.7,30.02,WSW,253,5.0,10.0,97,0.01,,,0.26,WUHU216DAVISVP2,2013-01-16 14:49:00,
2013-01-16 09:54:00,33.6,32.8,30.01,West,269,5.0,7.0,97,0.01,,,0.26,WUHU216DAVISVP2,2013-01-16 14:54:00,
2013-01-16 09:59:00,33.7,33.2,30.01,West,273,4.0,7.0,98,0.01,,,0.26,WUHU216DAVISVP2,2013-01-16 14:59:00,
2013-01-16 10:04:00,33.9,33.4,30.01,WNW,287,2.0,8.0,98,0.01,,,0.26,WUHU216DAVISVP2,2013-01-16 15:04:00,
2013-01-16 10:09:00,34.1,33.6,30.00,SW,233,3.0,8.0,98,0.01,,,0.26,WUHU216DAVISVP2,2013-01-16 15:09:00,
2013-01-16 10:14:00,34.4,33.9,30.00,West,269,4.0,6.0,98,0.01,,,0.26,WUHU216DAVISVP2,2013-01-16 15:14:00,
2013-01-16 10:19:00,34.7,34.2,30.00,WSW,250,3.0,6.0,98,0.01,,,0.26,WUHU216DAVISVP2,2013-01-16 15:19:00,
2013-01-16 10:24:00,34.9,34.4,29.99,SW,226,1.0,6.0,98,0.01,,,0.26,WUHU216DAVISVP2,2013-01-16 15:24:00,
2013-01-16 10:29:00,35.2,34.7,29.99,West,266,2.0,5.0,98,0.01,,,0.26,WUHU216DAVISVP2,2013-01-16 15:29:00,
2013-01-16 10:34:00,35.5,35.0,29.98,SW,229,3.0,5.0,98,0.00,,,0.26,WUHU216DAVISVP2,2013-01-16 15:34:00,
2013-01-16 10:39:00,35.9,35.4,29.98,WSW,252,4.0,5.0,98,0.00,,,0.26,WUHU216DAVISVP2,2013-01-16 15:39:00,
2013-01-16 10:44:00,36.2,35.7,29.97,SW,223,1.0,5.0,98,0.00,,,0.26,WUHU216DAVISVP2,2013-01-16 15:44:00,
2013-01-16 10:49:00,36.6,36.1,29.97,SSE,162,0.0,4.0,98,0.00,,,0.26,WUHU216DAVISVP2,2013-01-16 15:49:00,
2013-01-16 10:54:00,37.1,36.6,29.96,SSE,150,0.0,2.0,98,0.00,,,0.26,WUHU216DAVISVP2,2013-01-16 15:54:00,
2013-01-16 10:59:00,37.1,36.6,29.96,East,94,3.0,5.0,98,0.00,,,0.26,WUHU216DAVISVP2,2013-01-16 15:59:00,
2013-01-16 11:04:00,37.1,36.6,29.94,ENE,70,3.0,5.0,98,0.00,,,0.26,WUHU216DAVISVP2,2013-01-16 16:04:00,
2013-01-16 11:09:00,37.0,36.5,29.94,ESE,108,1.0,3.0,98,0.00,,,0.26,WUHU216DAVISVP2,2013-01-16 16:09:00,
2013-01-16 11:14:00,36.9,36.4,29.92,East,84,2.0,4.0,98,0.00,,,0.26,WUHU216DAVISVP2,2013-01-16 16:14:00,
2013-01-16 11:19:00,36.8,36.0,29.92,ESE,110,2.0,4.0,97,0.00,,,0.26,WUHU216DAVISVP2,2013-01-16 16:19:00,
2013-01-16 11:24:00,36.8,36.0,29.90,East,84,0.0,3.0,97,0.00,,,0.26,WUHU216DAVISVP2,2013-01-16 16:24:00,
2013-01-16 11:29:00,37.0,36.2,29.90,SSW,198,0.0,2.0,97,0.00,,,0.26,WUHU216DAVISVP2,2013-01-16 16:29:00,
2013-01-16 11:34:00,37.4,36.9,29.90,SW,230,1.0,3.0,98,0.00,,,0.26,WUHU216DAVISVP2,2013-01-16 16:34:00,
2013-01-16 11:39:00,38.4,37.9,29.89,SSW,211,7.0,8.0,98,0.00,,,0.26,WUHU216DAVISVP2,2013-01-16 16:39:00,
2013-01-16 11:44:00,39.4,38.9,29.88,SW,235,7.0,8.0,98,0.00,,,0.26,WUHU216DAVISVP2,2013-01-16 16:44:00,
2013-01-16 11:49:00,39.7,38.9,29.87,East,100,0.0,8.0,97,0.00,,,0.26,WUHU216DAVISVP2,2013-01-16 16:49:00,
2013-01-16 11:54:00,39.8,38.7,29.86,SW,231,1.0,8.0,96,0.00,,,0.26,WUHU216DAVISVP2,2013-01-16 16:54:00,
2013-01-16 11:59:00,40.0,38.9,29.85,SW,228,7.0,9.0,96,0.00,,,0.26,WUHU216DAVISVP2,2013-01-16 16:59:00,
2013-01-16 12:04:00,40.5,38.9,29.84,WSW,250,8.0,13.0,94,0.00,,,0.26,WUHU216DAVISVP2,2013-01-16 17:04:00,
2013-01-16 12:09:00,41.0,39.1,29.83,WSW,257,9.0,14.0,93,0.00,,,0.26,WUHU216DAVISVP2,2013-01-16 17:09:00,
2013-01-16 12:14:00,41.4,39.2,29.83,WSW,238,8.0,14.0,92,0.00,,,0.26,WUHU216DAVISVP2,2013-01-16 17:14:00,
2013-01-16 12:19:00,41.5,39.3,29.83,West,273,8.0,14.0,92,0.00,,,0.26,WUHU216DAVISVP2,2013-01-16 17:19:00,
2013-01-16 12:24:00,41.5,39.3,29.83,West,274,6.0,14.0,92,0.00,,,0.26,WUHU216DAVISVP2,2013-01-16 17:24:00,
2013-01-16 12:29:00,41.6,39.4,29.83,SW,225,9.0,13.0,92,0.00,,,0.26,WUHU216DAVISVP2,2013-01-16 17:29:00,
2013-01-16 12:34:00,41.9,39.7,29.82,West,278,4.0,12.0,92,0.00,,,0.26,WUHU216DAVISVP2,2013-01-16 17:34:00,
2013-01-16 12:39:00,42.3,40.1,29.82,West,273,8.0,12.0,92,0.00,,,0.26,WUHU216DAVISVP2,2013-01-16 17:39:00,
2013-01-16 12:44:00,42.9,40.7,29.81,SW,231,6.0,12.0,92,0.00,,,0.26,WUHU216DAVISVP2,2013-01-16 17:44:00,
2013-01-16 12:49:00,43.5,40.7,29.80,West,262,9.0,12.0,90,0.00,,,0.26,WUHU216DAVISVP2,2013-01-16 17:49:00,
2013-01-16 12:54:00,43.7,40.9,29.80,West,266,5.0,11.0,90,0.00,,,0.26,WUHU216DAVISVP2,2013-01-16 17:54:00,
2013-01-16 12:59:00,43.9,41.4,29.80,WNW,297,8.0,13.0,91,0.00,,,0.26,WUHU216DAVISVP2,2013-01-16 17:59:00,
2013-01-16 13:04:00,43.7,40.6,29.80,WSW,239,6.0,13.0,89,0.00,,,0.26,WUHU216DAVISVP2,2013-01-16 18:04:00,
2013-01-16 13:09:00,43.5,40.4,29.79,West,276,9.0,13.0,89,0.00,,,0.26,WUHU216DAVISVP2,2013-01-16 18:09:00,
2013-01-16 13:14:00,42.8,40.3,29.79,West,267,7.0,12.0,91,0.00,,,0.26,WUHU216DAVISVP2,2013-01-16 18:14:00,
2013-01-16 13:19:00,42.5,40.3,29.79,WNW,288,6.0,11.0,92,0.00,,,0.26,WUHU216DAVISVP2,2013-01-16 18:19:00,
2013-01-16 13:24:00,42.6,40.4,29.80,WSW,256,7.0,11.0,92,0.00,,,0.26,WUHU216DAVISVP2,2013-01-16 18:24:00,
2013-01-16 13:29:00,42.7,40.5,29.81,WNW,287,7.0,11.0,92,0.00,,,0.26,WUHU216DAVISVP2,2013-01-16 18:29:00,
2013-01-16 13:34:00,42.7,40.5,29.81,West,260,7.0,12.0,92,0.00,,,0.26,WUHU216DAVISVP2,2013-01-16 18:34:00,
2013-01-16 13:39:00,42.8,40.9,29.81,West,281,7.0,12.0,93,0.00,,,0.26,WUHU216DAVISVP2,2013-01-16 18:39:00,
2013-01-16 13:44:00,43.6,41.7,29.81,WSW,246,5.0,11.0,93,0.00,,,0.26,WUHU216DAVISVP2,2013-01-16 18:44:00,
2013-01-16 13:49:00,45.9,43.4,29.79,SW,232,12.0,18.0,91,0.00,,,0.26,WUHU216DAVISVP2,2013-01-16 18:49:00,
2013-01-16 13:54:00,49.8,44.5,29.78,SW,232,9.0,27.0,82,0.00,,,0.26,WUHU216DAVISVP2,2013-01-16 18:54:00,
2013-01-16 13:59:00,51.1,44.5,29.79,West,278,6.0,27.0,78,0.00,,,0.26,WUHU216DAVISVP2,2013-01-16 18:59:00,
2013-01-16 14:04:00,50.1,43.6,29.79,WNW,291,5.0,18.0,78,0.00,,,0.26,WUHU216DAVISVP2,2013-01-16 19:04:00,
2013-01-16 14:09:00,47.7,42.2,29.80,West,273,5.0,13.0,81,0.00,,,0.26,WUHU216DAVISVP2,2013-01-16 19:09:00,
2013-01-16 14:14:00,45.7,41.4,29.82,WNW,283,9.0,13.0,85,0.00,,,0.26,WUHU216DAVISVP2,2013-01-16 19:14:00,
2013-01-16 14:19:00,44.1,40.7,29.83,WNW,300,8.0,11.0,88,0.00,,,0.26,WUHU216DAVISVP2,2013-01-16 19:19:00,
2013-01-16 14:24:00,43.3,40.8,29.83,West,262,4.0,10.0,91,0.00,,,0.26,WUHU216DAVISVP2,2013-01-16 19:24:00,
2013-01-16 14:29:00,43.0,40.5,29.84,WSW,257,4.0,10.0,91,0.00,,,0.26,WUHU216DAVISVP2,2013-01-16 19:29:00,
2013-01-16 14:34:00,42.9,40.7,29.84,SW,233,4.0,9.0,92,0.00,,,0.26,WUHU216DAVISVP2,2013-01-16 19:34:00,
2013-01-16 14:39:00,43.6,41.7,29.84,NW,307,5.0,8.0,93,0.00,,,0.26,WUHU216DAVISVP2,2013-01-16 19:39:00,
2013-01-16 14:44:00,45.4,42.9,29.84,West,269,2.0,10.0,91,0.00,,,0.26,WUHU216DAVISVP2,2013-01-16 19:44:00,
2013-01-16 14:49:00,46.7,43.6,29.84,NE,34,3.0,10.0,89,0.00,,,0.26,WUHU216DAVISVP2,2013-01-16 19:49:00,
2013-01-16 14:54:00,45.7,42.0,29.85,ENE,61,3.0,6.0,87,0.00,,,0.26,WUHU216DAVISVP2,2013-01-16 19:54:00,
2013-01-16 14:59:00,44.2,41.1,29.86,ENE,63,4.0,8.0,89,0.00,,,0.26,WUHU216DAVISVP2,2013-01-16 19:59:00,
2013-01-16 15:04:00,43.3,40.5,29.87,NE,36,6.0,8.0,90,0.00,,,0.26,WUHU216DAVISVP2,2013-01-16 20:04:00,
2013-01-16 15:09:00,42.8,40.6,29.88,NNE,25,7.0,7.0,92,0.00,,,0.26,WUHU216DAVISVP2,2013-01-16 20:09:00,
2013-01-16 15:14:00,42.2,40.0,29.88,NE,41,4.0,7.0,92,0.00,,,0.26,WUHU216DAVISVP2,2013-01-16 20:14:00,
2013-01-16 15:19:00,41.7,39.5,29.89,East,79,6.0,7.0,92,0.00,,,0.26,WUHU216DAVISVP2,2013-01-16 20:19:00,
2013-01-16 15:24:00,41.3,39.1,29.90,East,79,6.0,7.0,92,0.00,,,0.26,WUHU216DAVISVP2,2013-01-16 20:24:00,
2013-01-16 15:29:00,40.6,38.4,29.89,ENE,77,6.0,8.0,92,0.00,,,0.26,WUHU216DAVISVP2,2013-01-16 20:29:00,
2013-01-16 15:34:00,39.9,37.7,29.90,ENE,61,4.0,9.0,92,0.00,,,0.26,WUHU216DAVISVP2,2013-01-16 20:34:00,
2013-01-16 15:39:00,39.6,37.7,29.91,ENE,63,8.0,11.0,93,0.00,,,0.26,WUHU216DAVISVP2,2013-01-16 20:39:00,
2013-01-16 15:44:00,39.4,37.5,29.89,ENE,63,3.0,11.0,93,0.00,,,0.26,WUHU216DAVISVP2,2013-01-16 20:44:00,
2013-01-16 15:49:00,39.4,37.8,29.90,ENE,72,4.0,9.0,94,0.00,,,0.26,WUHU216DAVISVP2,2013-01-16 20:49:00,
2013-01-16 15:54:00,39.4,37.8,29.89,ESE,108,4.0,5.0,94,0.00,,,0.26,WUHU216DAVISVP2,2013-01-16 20:54:00,
2013-01-16 15:59:00,39.7,38.1,29.89,East,91,3.0,6.0,94,0.00,,,0.26,WUHU216DAVISVP2,2013-01-16 20:59:00,
2013-01-16 16:04:00,39.8,38.2,29.90,NE,42,3.0,6.0,94,0.00,,,0.26,WUHU216DAVISVP2,2013-01-16 21:04:00,
2013-01-16 16:09:00,39.9,38.3,29.90,NE,44,2.0,5.0,94,0.00,,,0.26,WUHU216DAVISVP2,2013-01-16 21:09:00,
2013-01-16 16:14:00,40.0,38.4,29.91,NE,34,2.0,5.0,94,0.00,,,0.26,WUHU216DAVISVP2,2013-01-16 21:14:00,
2013-01-16 16:19:00,39.9,38.0,29.90,North,359,2.0,5.0,93,0.00,,,0.26,WUHU216DAVISVP2,2013-01-16 21:19:00,
2013-01-16 16:24:00,39.7,37.8,29.90,NNE,30,2.0,5.0,93,0.00,,,0.26,WUHU216DAVISVP2,2013-01-16 21:24:00,
2013-01-16 16:29:00,39.6,38.0,29.91,North,352,1.0,5.0,94,0.00,,,0.26,WUHU216DAVISVP2,2013-01-16 21:29:00,
2013-01-16 16:34:00,39.4,37.8,29.92,North,358,1.0,5.0,94,0.00,,,0.26,WUHU216DAVISVP2,2013-01-16 21:34:00,
2013-01-16 16:39:00,39.3,37.7,29.93,NE,47,0.0,5.0,94,0.00,,,0.26,WUHU216DAVISVP2,2013-01-16 21:39:00,
2013-01-16 16:44:00,39.3,37.7,29.94,NE,53,1.0,2.0,94,0.00,,,0.26,WUHU216DAVISVP2,2013-01-16 21:44:00,
2013-01-16 16:49:00,39.2,37.6,29.94,East,92,2.0,3.0,94,0.00,,,0.26,WUHU216DAVISVP2,2013-01-16 21:49:00,
2013-01-16 16:54:00,39.3,37.9,29.94,East,93,2.0,4.0,95,0.00,,,0.26,WUHU216DAVISVP2,2013-01-16 21:54:00,
2013-01-16 16:59:00,39.3,37.9,29.93,East,86,5.0,5.0,95,0.00,,,0.26,WUHU216DAVISVP2,2013-01-16 21:59:00,
2013-01-16 17:04:00,39.3,37.9,29.93,East,84,2.0,5.0,95,0.00,,,0.26,WUHU216DAVISVP2,2013-01-16 22:04:00,
2013-01-16 17:09:00,39.2,37.8,29.94,NE,46,1.0,5.0,95,0.00,,,0.26,WUHU216DAVISVP2,2013-01-16 22:09:00,
2013-01-16 17:14:00,39.3,37.9,29.93,ENE,57,2.0,4.0,95,0.00,,,0.26,WUHU216DAVISVP2,2013-01-16 22:14:00,
2013-01-16 17:19:00,39.2,37.8,29.94,ENE,58,0.0,4.0,95,0.00,,,0.26,WUHU216DAVISVP2,2013-01-16 22:19:00,
2013-01-16 17:24:00,39.2,37.8,29.94,ENE,61,2.0,3.0,95,0.00,,,0.26,WUHU216DAVISVP2,2013-01-16 22:24:00,
2013-01-16 17:29:00,39.2,37.8,29.95,ENE,61,0.0,3.0,95,0.00,,,0.26,WUHU216DAVISVP2,2013-01-16 22:29:00,
2013-01-16 17:34:00,39.1,37.7,29.95,ENE,61,0.0,2.0,95,0.00,,,0.26,WUHU216DAVISVP2,2013-01-16 22:34:00,
2013-01-16 17:39:00,39.1,37.7,29.95,ENE,61,2.0,2.0,95,0.00,,,0.26,WUHU216DAVISVP2,2013-01-16 22:39:00,
2013-01-16 17:44:00,39.0,37.6,29.94,ENE,63,2.0,3.0,95,0.00,,,0.26,WUHU216DAVISVP2,2013-01-16 22:44:00,
2013-01-16 17:49:00,39.0,37.6,29.95,ENE,60,0.0,3.0,95,0.00,,,0.26,WUHU216DAVISVP2,2013-01-16 22:49:00,
2013-01-16 17:54:00,39.0,37.6,29.94,NNE,16,1.0,2.0,95,0.00,,,0.26,WUHU216DAVISVP2,2013-01-16 22:54:00,
2013-01-16 17:59:00,39.0,37.6,29.94,NE,51,1.0,2.0,95,0.00,,,0.26,WUHU216DAVISVP2,2013-01-16 22:59:00,
2013-01-16 18:04:00,38.9,37.5,29.94,ENE,76,0.0,2.0,95,0.00,,,0.26,WUHU216DAVISVP2,2013-01-16 23:04:00,
2013-01-16 18:09:00,38.8,37.4,29.93,ENE,72,1.0,2.0,95,0.00,,,0.26,WUHU216DAVISVP2,2013-01-16 23:09:00,
2013-01-16 18:14:00,38.7,37.3,29.92,ENE,72,0.0,2.0,95,0.00,,,0.26,WUHU216DAVISVP2,2013-01-16 23:14:00,
2013-01-16 18:19:00,38.7,37.3,29.93,NNW,345,0.0,1.0,95,0.00,,,0.26,WUHU216DAVISVP2,2013-01-16 23:19:00,
2013-01-16 18:24:00,38.5,37.1,29.95,WNW,288,1.0,2.0,95,0.00,,,0.26,WUHU216DAVISVP2,2013-01-16 23:24:00,
2013-01-16 18:29:00,38.5,37.4,29.95,WNW,286,2.0,4.0,96,0.00,,,0.26,WUHU216DAVISVP2,2013-01-16 23:29:00,
2013-01-16 18:34:00,38.5,37.4,29.96,WSW,243,2.0,4.0,96,0.00,,,0.26,WUHU216DAVISVP2,2013-01-16 23:34:00,
2013-01-16 18:39:00,38.5,37.4,29.96,South,170,0.0,3.0,96,0.00,,,0.26,WUHU216DAVISVP2,2013-01-16 23:39:00,
2013-01-16 18:44:00,38.5,37.4,29.95,South,169,0.0,3.0,96,0.00,,,0.26,WUHU216DAVISVP2,2013-01-16 23:44:00,
2013-01-16 18:49:00,38.5,37.4,29.96,SW,223,0.0,1.0,96,0.00,,,0.26,WUHU216DAVISVP2,2013-01-16 23:49:00,
2013-01-16 18:54:00,38.5,37.4,29.96,SW,222,0.0,1.0,96,0.00,,,0.26,WUHU216DAVISVP2,2013-01-16 23:54:00,
2013-01-16 18:59:00,38.5,37.4,29.96,SW,222,0.0,1.0,96,0.00,,,0.26,WUHU216DAVISVP2,2013-01-16 23:59:00,
2013-01-16 19:04:00,38.6,37.5,29.97,SW,223,0.0,1.0,96,0.00,,,0.26,WUHU216DAVISVP2,2013-01-17 00:04:00,
2013-01-16 19:09:00,38.6,37.5,29.97,ENE,61,2.0,2.0,96,0.00,,,0.26,WUHU216DAVISVP2,2013-01-17 00:09:00,
2013-01-16 19:14:00,38.6,37.5,29.97,East,91,1.0,2.0,96,0.00,,,0.26,WUHU216DAVISVP2,2013-01-17 00:14:00,
2013-01-16 19:19:00,38.6,37.5,29.97,ENE,61,1.0,2.0,96,0.00,,,0.26,WUHU216DAVISVP2,2013-01-17 00:19:00,
2013-01-16 19:24:00,38.6,37.5,29.97,ESE,108,1.0,2.0,96,0.00,,,0.26,WUHU216DAVISVP2,2013-01-17 00:24:00,
2013-01-16 19:29:00,38.7,37.6,29.97,ESE,103,2.0,4.0,96,0.00,,,0.26,WUHU216DAVISVP2,2013-01-17 00:29:00,
2013-01-16 19:34:00,38.7,37.6,29.96,ESE,103,2.0,4.0,96,0.00,,,0.26,WUHU216DAVISVP2,2013-01-17 00:34:00,
2013-01-16 19:39:00,38.7,37.6,29.96,SE,134,3.0,4.0,96,0.00,,,0.26,WUHU216DAVISVP2,2013-01-17 00:39:00,
2013-01-16 19:44:00,38.6,37.5,29.96,SE,126,0.0,4.0,96,0.00,,,0.26,WUHU216DAVISVP2,2013-01-17 00:44:00,
2013-01-16 19:49:00,38.7,37.6,29.97,SE,127,0.0,3.0,96,0.00,,,0.26,WUHU216DAVISVP2,2013-01-17 00:49:00,
2013-01-16 19:54:00,38.7,37.6,29.97,SE,124,0.0,2.0,96,0.00,,,0.26,WUHU216DAVISVP2,2013-01-17 00:54:00,
2013-01-16 19:59:00,38.8,37.7,29.97,SE,124,1.0,2.0,96,0.00,,,0.26,WUHU216DAVISVP2,2013-01-17 00:59:00,
2013-01-16 20:04:00,38.9,37.8,29.97,SE,138,1.0,2.0,96,0.00,,,0.26,WUHU216DAVISVP2,2013-01-17 01:04:00,
2013-01-16 20:09:00,39.0,37.9,29.97,SSW,195,1.0,1.0,96,0.00,,,0.26,WUHU216DAVISVP2,2013-01-17 01:09:00,
2013-01-16 20:14:00,39.0,37.9,29.97,SSW,205,0.0,1.0,96,0.00,,,0.26,WUHU216DAVISVP2,2013-01-17 01:14:00,
2013-01-16 20:19:00,39.2,38.1,29.97,SSW,205,0.0,1.0,96,0.00,,,0.26,WUHU216DAVISVP2,2013-01-17 01:19:00,
2013-01-16 20:24:00,39.3,38.5,29.97,SSW,205,0.0,0.0,97,0.00,,,0.26,WUHU216DAVISVP2,2013-01-17 01:24:00,
2013-01-16 20:29:00,39.5,38.7,29.97,NW,323,0.0,1.0,97,0.00,,,0.26,WUHU216DAVISVP2,2013-01-17 01:29:00,
2013-01-16 20:34:00,39.6,38.8,29.97,SSE,155,1.0,1.0,97,0.00,,,0.26,WUHU216DAVISVP2,2013-01-17 01:34:00,
2013-01-16 20:39:00,39.8,39.0,29.96,SE,144,0.0,2.0,97,0.00,,,0.26,WUHU216DAVISVP2,2013-01-17 01:39:00,
2013-01-16 20:44:00,39.9,39.1,29.95,SE,136,2.0,2.0,97,0.00,,,0.26,WUHU216DAVISVP2,2013-01-17 01:44:00,
2013-01-16 20:49:00,40.1,39.3,29.96,SE,135,0.0,2.0,97,0.00,,,0.26,WUHU216DAVISVP2,2013-01-17 01:49:00,
2013-01-16 20:54:00,40.3,39.5,29.95,SSW,197,0.0,2.0,97,0.00,,,0.26,WUHU216DAVISVP2,2013-01-17 01:54:00,
2013-01-16 20:59:00,40.6,39.8,29.95,SW,229,2.0,2.0,97,0.00,,,0.26,WUHU216DAVISVP2,2013-01-17 01:59:00,
2013-01-16 21:04:00,41.1,40.6,29.96,West,276,3.0,5.0,98,0.00,,,0.26,WUHU216DAVISVP2,2013-01-17 02:04:00,
2013-01-16 21:09:00,40.9,39.5,29.96,West,266,2.0,5.0,95,0.00,,,0.26,WUHU216DAVISVP2,2013-01-17 02:09:00,
2013-01-16 21:14:00,40.6,39.2,29.95,WNW,293,3.0,4.0,95,0.00,,,0.26,WUHU216DAVISVP2,2013-01-17 02:14:00,
2013-01-16 21:19:00,40.3,38.9,29.96,West,272,4.0,5.0,95,0.00,,,0.26,WUHU216DAVISVP2,2013-01-17 02:19:00,
2013-01-16 21:24:00,40.0,38.6,29.95,WSW,257,2.0,5.0,95,0.00,,,0.26,WUHU216DAVISVP2,2013-01-17 02:24:00,
2013-01-16 21:29:00,39.8,38.4,29.95,West,274,2.0,5.0,95,0.00,,,0.26,WUHU216DAVISVP2,2013-01-17 02:29:00,
2013-01-16 21:34:00,39.7,38.6,29.95,WNW,285,3.0,4.0,96,0.00,,,0.26,WUHU216DAVISVP2,2013-01-17 02:34:00,
2013-01-16 21:39:00,39.6,38.5,29.95,WNW,297,5.0,5.0,96,0.00,,,0.26,WUHU216DAVISVP2,2013-01-17 02:39:00,
2013-01-16 21:44:00,39.6,38.5,29.96,West,278,3.0,6.0,96,0.00,,,0.26,WUHU216DAVISVP2,2013-01-17 02:44:00,
2013-01-16 21:49:00,39.6,38.5,29.96,WSW,243,5.0,7.0,96,0.00,,,0.26,WUHU216DAVISVP2,2013-01-17 02:49:00,
2013-01-16 21:54:00,39.6,38.5,29.95,West,264,2.0,7.0,96,0.00,,,0.26,WUHU216DAVISVP2,2013-01-17 02:54:00,
2013-01-16 21:59:00,39.7,38.9,29.95,West,281,2.0,5.0,97,0.00,,,0.26,WUHU216DAVISVP2,2013-01-17 02:59:00,
2013-01-16 22:04:00,39.9,38.8,29.95,West,270,3.0,6.0,96,0.00,,,0.26,WUHU216DAVISVP2,2013-01-17 03:04:00,
2013-01-16 22:09:00,39.9,38.8,29.95,WSW,257,2.0,6.0,96,0.00,,,0.26,WUHU216DAVISVP2,2013-01-17 03:09:00,
2013-01-16 22:14:00,40.1,39.0,29.94,West,262,2.0,4.0,96,0.00,,,0.26,WUHU216DAVISVP2,2013-01-17 03:14:00,
2013-01-16 22:19:00,40.2,39.4,29.95,West,271,4.0,5.0,97,0.00,,,0.26,WUHU216DAVISVP2,2013-01-17 03:19:00,
2013-01-16 22:24:00,40.3,39.2,29.95,WSW,243,5.0,5.0,96,0.00,,,0.26,WUHU216DAVISVP2,2013-01-17 03:24:00,
2013-01-16 22:29:00,40.4,39.3,29.96,WSW,255,2.0,5.0,96,0.00,,,0.26,WUHU216DAVISVP2,2013-01-17 03:29:00,
2013-01-16 22:34:00,40.5,39.4,29.96,West,278,0.0,4.0,96,0.00,,,0.26,WUHU216DAVISVP2,2013-01-17 03:34:00,
2013-01-16 22:39:00,40.5,39.4,29.96,WNW,297,0.0,2.0,96,0.00,,,0.26,WUHU216DAVISVP2,2013-01-17 03:39:00,
2013-01-16 22:44:00,40.5,39.4,29.95,East,87,1.0,1.0,96,0.00,,,0.26,WUHU216DAVISVP2,2013-01-17 03:44:00,
2013-01-16 22:49:00,40.5,39.4,29.94,East,84,2.0,3.0,96,0.00,,,0.26,WUHU216DAVISVP2,2013-01-17 03:49:00,
2013-01-16 22:54:00,40.4,39.3,29.95,ESE,104,0.0,3.0,96,0.00,,,0.26,WUHU216DAVISVP2,2013-01-17 03:54:00,
2013-01-16 22:59:00,40.3,39.2,29.95,ESE,106,0.0,3.0,96,0.00,,,0.26,WUHU216DAVISVP2,2013-01-17 03:59:00,
2013-01-16 23:04:00,40.3,39.2,29.94,East,94,1.0,3.0,96,0.00,,,0.26,WUHU216DAVISVP2,2013-01-17 04:04:00,
2013-01-16 23:09:00,40.3,39.2,29.93,ENE,73,2.0,3.0,96,0.00,,,0.26,WUHU216DAVISVP2,2013-01-17 04:09:00,
2013-01-16 23:14:00,40.2,39.1,29.94,NE,39,1.0,3.0,96,0.00,,,0.26,WUHU216DAVISVP2,2013-01-17 04:14:00,
2013-01-16 23:19:00,40.1,39.0,29.94,ENE,65,1.0,3.0,96,0.00,,,0.26,WUHU216DAVISVP2,2013-01-17 04:19:00,
2013-01-16 23:24:00,40.1,39.0,29.93,ENE,59,1.0,2.0,96,0.00,,,0.26,WUHU216DAVISVP2,2013-01-17 04:24:00,
2013-01-16 23:29:00,40.0,38.9,29.94,NNW,338,0.0,2.0,96,0.00,,,0.26,WUHU216DAVISVP2,2013-01-17 04:29:00,
2013-01-16 23:34:00,40.0,38.9,29.94,WSW,245,0.0,2.0,96,0.00,,,0.26,WUHU216DAVISVP2,2013-01-17 04:34:00,
2013-01-16 23:39:00,40.0,38.9,29.94,WSW,246,2.0,3.0,96,0.00,,,0.26,WUHU216DAVISVP2,2013-01-17 04:39:00,
2013-01-16 23:44:00,40.1,39.0,29.94,West,265,2.0,3.0,96,0.00,,,0.26,WUHU216DAVISVP2,2013-01-17 04:44:00,
2013-01-16 23:49:00,40.3,39.5,29.95,WSW,246,0.0,3.0,97,0.00,,,0.26,WUHU216DAVISVP2,2013-01-17 04:49:00,
2013-01-16 23:54:00,40.5,39.7,29.96,West,269,2.0,4.0,97,0.00,,,0.26,WUHU216DAVISVP2,2013-01-17 04:54:00,
2013-01-16 23:59:00,40.7,39.9,29.95,West,274,2.0,4.0,97,0.00,,,0.26,WUHU216DAVISVP2,2013-01-17 04:59:00,